#datint,netname,site,siteID,timestamp,IntT,BattV,AirT2,AirT,AirT_Avg,AirT_Max,AirT_Min,RH_Avg,RH_Max,RH_Min,EA_Avg,Td_Avg,Td_Max,Td_Min,WindS_Smp,WindS_Avg,WindD_Avg,WindD_SD,WindS_Max,ETo,ETr,SoilT4,SoilT8,SoilVWC8,SolarW_Avg,wetstate_Avg,wetT_Avg,Precip_accum,Precip_WPG,Precip_TB
15min,AgWx,beryljct,423,05SEP2020:00:00:00,62.4,12.88,68.0,66.9,67.1,69.2,65.0,23,34,17,0.446,28.2,36.2,22.7,3.771,4.1,313,11,5.5,0.00036,0.00056,68.2,68.5,16,0,0,61.0,4.32,0.00,0.00
15min,AgWx,beryljct,423,05SEP2020:00:15:00,62.5,12.87,62.6,63.0,63.3,67.0,59.3,25,35,20,0.453,26.3,31.9,22.7,4.494,4.3,312,5.3,5.3,0.00035,0.00053,67.9,68.5,16,0,0,58.6,4.32,0.00,0.00
15min,AgWx,beryljct,423,05SEP2020:00:30:00,62.4,12.86,66.2,65.3,64.6,68.3,61.5,22,29,16,0.459,24.6,29.5,20.2,3.091,4.3,321,18,6.1,0.00039,0.00059,67.6,68.4,16,0,0,59.1,4.32,0.00,0.00
15min,AgWx,beryljct,423,05SEP2020:00:45:00,62.5,12.85,55.6,56.8,63.0,67.4,56.8,24,33,17,0.524,25.4,29.6,21.1,3.529,4.6,329,9.4,5.7,0.00040,0.00059,66.8,68.4,16,0,0,58.8,4.32,0.00,0.00
15min,AgWx,beryljct,423,05SEP2020:01:00:00,61.4,12.83,54.6,54.9,55.5,56.6,54.8,35,42,32,0.620,28.5,32.4,26.1,0.658,1.7,330,8.1,3.6,-0.00008,-0.00007,66.0,68.3,16,0,0,50.0,4.32,0.00,0.00
15min,AgWx,beryljct,423,05SEP2020:01:15:00,59.9,12.84,54.7,54.7,55.6,56.6,54.5,45,53,35,0.759,34.6,38.2,28.9,3.573,1.7,142,14,4.4,-0.00010,-0.00011,65.5,68.3,16,0,0,48.5,4.32,0.00,0.00
15min,AgWx,beryljct,423,05SEP2020:01:30:00,58.6,12.82,50.6,51.1,53.8,56.1,51.1,52,64,41,0.807,36.5,39.6,32.8,3.442,4.0,150,8.5,5.3,0.00010,0.00017,65.0,68.2,16,0,0,48.2,4.32,0.01,0.00
15min,AgWx,beryljct,423,05SEP2020:01:45:00,57.0,12.81,52.4,50.3,49.9,51.0,49.3,60,67,50,0.615,36.3,39.5,32.2,4.056,2.1,174,16,4.1,-0.00009,-0.00010,64.6,68.1,16,0,0,43.8,4.32,0.00,0.00
15min,AgWx,beryljct,423,05SEP2020:02:00:00,56.0,12.81,51.8,53.0,53.9,55.1,50.5,33,46,27,0.616,25.4,32.2,21.9,1.995,4.2,174,11,6.8,0.00023,0.00035,64.3,68.0,16,0,0,47.6,4.33,0.00,0.00
15min,AgWx,beryljct,423,05SEP2020:02:15:00,55.2,12.79,50.9,50.1,50.7,52.8,48.3,47,62,37,0.458,31.1,38.8,25.0,4.56,2.6,173,15,4.8,-0.00001,0.00003,64.0,67.8,16,0,0,45.0,4.33,0.00,0.00
15min,AgWx,beryljct,423,05SEP2020:02:30:00,54.3,12.78,50.9,50.4,50.9,51.6,50.0,44,54,35,0.579,29.8,34.7,24.1,1.863,2.0,156,14,4.6,-0.00006,-0.00005,63.7,67.7,16,0,0,43.9,4.33,0.00,0.00
15min,AgWx,beryljct,423,05SEP2020:02:45:00,53.4,12.77,49.2,48.8,48.5,50.8,47.6,56,65,40,0.570,33.5,36.9,27.3,2.346,2.7,145,9.8,4.7,-0.00003,-0.00001,63.4,67.6,16,0,0,42.2,4.33,0.00,0.00
15min,AgWx,beryljct,423,05SEP2020:03:00:00,52.5,12.77,47.5,46.9,47.1,49.0,46.1,59,69,48,0.619,33.5,36.5,30.3,1.71,2.9,149,7.6,3.9,-0.00003,-0.00001,63.1,67.5,16,0,0,40.8,4.33,0.00,0.00
15min,AgWx,beryljct,423,05SEP2020:03:15:00,51.6,12.75,49.8,48.8,47.7,48.8,46.9,49,59,40,0.467,29.5,33.9,25.5,3.091,2.0,178,4.4,3.6,-0.00008,-0.00008,62.8,67.4,16,0,0,40.7,4.33,0.00,0.00
15min,AgWx,beryljct,423,05SEP2020:03:30:00,51.1,12.74,47.5,47.3,48.3,49.4,47.1,47,57,37,0.630,28.8,32.8,24.2,1.425,1.9,155,18,3.0,-0.00008,-0.00008,62.6,67.2,16,0,0,41.6,4.33,0.00,0.00
15min,AgWx,beryljct,423,05SEP2020:03:45:00,50.5,12.75,48.1,48.0,46.8,48.0,45.7,59,67,49,0.555,33.4,36.1,29.6,2.389,1.3,150,13,2.9,-0.00017,-0.00022,62.4,67.1,16,0,0,39.8,4.33,0.00,0.00
15min,AgWx,beryljct,423,05SEP2020:04:00:00,50.2,12.74,48.7,48.5,48.1,48.5,47.3,44,54,34,0.411,27.1,32.1,21.1,3.003,3.1,167,9.9,4.6,0.00005,0.00010,62.1,67.0,16,0,0,41.4,4.34,0.00,0.00
15min,AgWx,beryljct,423,05SEP2020:04:15:00,49.8,12.73,47.1,45.6,45.8,48.6,44.0,55,67,35,0.452,30.5,34.4,21.9,2.872,2.3,180,47,4.1,-0.00006,-0.00005,61.9,66.9,17,0,0,39.9,4.34,0.00,0.00
15min,AgWx,beryljct,423,05SEP2020:04:30:00,49.4,12.73,47.8,47.5,47.2,48.5,45.9,46,52,40,0.500,27.4,29.9,23.4,3.266,2.4,258,43,3.5,-0.00003,-0.00000,61.7,66.8,16,0,0,40.2,4.33,0.00,0.00
15min,AgWx,beryljct,423,05SEP2020:04:45:00,48.9,12.71,42.7,42.6,44.4,47.5,42.6,51,55,45,0.512,27.6,30.2,25.8,3.376,4.0,332,8.6,5.1,0.00008,0.00013,61.4,66.7,16,0,0,38.8,4.34,0.00,0.00
15min,AgWx,beryljct,423,05SEP2020:05:00:00,48.2,12.7,45.2,44.7,43.8,45.3,42.6,47,57,36,0.432,24.6,28.5,20.2,5.722,3.9,322,4.8,5.7,0.00009,0.00015,61.2,66.5,16,0,0,37.7,4.33,0.00,0.00
15min,AgWx,beryljct,423,05SEP2020:05:15:00,47.7,12.71,45.1,44.4,44.2,45.2,43.4,44,50,39,0.407,23.7,25.9,21.6,2.477,3.9,331,7.7,5.9,0.00011,0.00017,61.0,66.4,16,0,0,38.4,4.33,0.00,0.00
15min,AgWx,beryljct,423,05SEP2020:05:30:00,47.2,12.7,43.9,44.2,44.4,46.2,43.2,41,49,35,0.443,22.3,26.1,19.5,2.148,2.9,19,21,4.3,0.00004,0.00008,60.7,66.3,16,0,0,38.3,4.33,0.00,0.00
15min,AgWx,beryljct,423,05SEP2020:05:45:00,46.6,12.7,43.0,42.4,42.8,44.2,42.4,63,71,46,0.634,30.9,33.9,24.5,0.395,2.0,151,35,3.7,-0.00010,-0.00012,60.5,66.2,17,0,0,36.1,4.33,0.00,0.00
15min,AgWx,beryljct,423,05SEP2020:06:00:00,46.0,12.69,44.0,43.2,42.9,43.6,42.0,65,71,58,0.553,31.7,34.1,29.6,2.959,2.2,179,17,3.5,-0.00010,-0.00011,60.3,66.1,17,0,0,36.4,4.33,0.00,0.00
15min,AgWx,beryljct,423,05SEP2020:06:15:00,45.5,12.69,44.7,43.8,42.8,44.3,41.2,57,63,49,0.511,28.5,32.0,25.2,4.516,3.4,180,9.2,4.9,0.00001,0.00004,60.1,66.0,17,0,0,36.6,4.33,0.00,0.00
15min,AgWx,beryljct,423,05SEP2020:06:30:00,45.4,12.67,42.6,44.8,45.4,46.6,43.9,52,58,46,0.521,28.6,30.9,26.2,2.587,3.5,175,5.8,4.7,0.00037,0.00064,59.8,65.9,17,0,0,38.1,4.33,0.00,0.00
15min,AgWx,beryljct,423,05SEP2020:06:45:00,45.4,12.68,46.9,45.9,44.8,46.0,43.0,52,57,48,0.518,28.3,30.6,25.7,2.324,2.9,209,9.6,3.5,0.00030,0.00053,59.6,65.8,17,0,0,38.8,4.33,0.00,0.00
15min,AgWx,beryljct,423,05SEP2020:07:00:00,45.3,12.69,44.1,44.0,43.8,46.5,42.9,62,71,49,0.562,31.7,34.1,28.1,0,1.3,251,14,2.4,0.00012,0.00021,59.4,65.7,17,1,0,37.6,4.34,0.00,0.00
15min,AgWx,beryljct,423,05SEP2020:07:15:00,45.1,12.68,42.5,42.3,43.8,45.5,42.2,61,71,54,0.533,31.1,34.8,27.9,2.28,2.5,169,13,4.9,0.00024,0.00040,59.2,65.6,17,5,0,36.9,4.34,0.00,0.00
15min,AgWx,beryljct,423,05SEP2020:07:30:00,44.9,12.71,44.0,44.9,43.0,45.3,41.7,56,65,46,0.488,28.5,30.8,25.7,2.302,2.2,173,5.9,3.6,0.00038,0.00055,59.0,65.5,17,34,0,43.3,4.34,0.00,0.00
15min,AgWx,beryljct,423,05SEP2020:07:45:00,45.2,12.71,46.0,45.4,44.3,45.4,43.6,53,63,41,0.638,27.9,33.1,22.1,1.578,2.2,193,15,2.8,0.00057,0.00076,58.8,65.3,18,75,0,56.2,4.33,0.00,0.00
15min,AgWx,beryljct,423,05SEP2020:08:00:00,46.4,12.69,47.8,48.0,46.2,48.0,45.1,59,71,44,0.540,32.3,36.4,26.8,0.658,2.6,311,15,3.7,0.00074,0.00095,58.6,65.2,17,116,0,62.1,4.33,0.00,0.00
15min,AgWx,beryljct,423,05SEP2020:08:15:00,48.6,12.74,52.9,52.5,50.6,52.5,47.9,49,57,40,0.711,32.3,37.6,26.7,0,0.2,312,0.9,1.0,0.00081,0.00088,58.5,65.1,18,160,0,77.1,4.33,0.00,0.00
15min,AgWx,beryljct,423,05SEP2020:08:30:00,51.5,12.85,55.8,55.6,54.0,55.7,52.6,50,57,41,0.657,35.8,37.9,32.0,0.833,1.0,317,7.3,2.1,0.00116,0.00133,58.3,65.0,18,208,0,84.4,4.33,0.00,0.00
15min,AgWx,beryljct,423,05SEP2020:08:45:00,54.9,13.05,57.4,57.1,55.6,57.1,54.8,54,65,43,0.795,39.0,43.2,33.6,0,0.1,332,0.0,1.1,0.00138,0.00147,58.2,64.9,18,259,0,87.2,4.32,0.00,0.00
15min,AgWx,beryljct,423,05SEP2020:09:00:00,58.2,13.38,58.6,58.4,57.8,58.4,57.1,54,67,45,0.946,41.1,47.1,36.9,0.986,0.6,49,49,1.5,0.00175,0.00192,58.1,64.8,18,312,0,97.7,4.33,0.00,0.00
15min,AgWx,beryljct,423,05SEP2020:09:15:00,61.3,13.7,60.4,60.4,59.5,60.4,58.4,53,61,45,0.856,42.1,45.6,38.7,1.929,1.1,102,7.1,2.0,0.00212,0.00237,58.1,64.7,18,364,0,101.0,4.32,0.00,0.00
15min,AgWx,beryljct,423,05SEP2020:09:30:00,63.8,14.24,61.0,61.1,60.7,61.3,60.2,53,61,47,0.879,43.6,47.6,40.4,3.266,2.5,130,4.6,3.3,0.00254,0.00293,58.1,64.6,18,416,0,99.7,4.32,0.00,0.00
15min,AgWx,beryljct,423,05SEP2020:09:45:00,66.0,14.21,63.3,63.1,62.1,63.1,61.1,44,51,39,0.857,40.1,44.7,36.7,2.872,2.7,131,8.1,3.6,0.00294,0.00343,58.1,64.5,18,466,0,99.8,4.32,0.00,0.00
15min,AgWx,beryljct,423,05SEP2020:10:00:00,68.0,14.21,65.9,65.7,64.5,65.8,63.1,44,50,37,0.792,42.1,46.3,38.6,4.209,3.4,135,7.4,4.6,0.00336,0.00396,58.2,64.4,18,515,0,100.9,4.31,0.00,0.00
15min,AgWx,beryljct,423,05SEP2020:10:15:00,70.1,14.19,68.4,68.1,66.9,68.1,65.7,40,48,35,1.098,42.0,47.0,37.4,2.126,3.3,132,6.3,4.5,0.00375,0.00440,58.4,64.3,18,561,0,103.3,4.31,0.00,0.00
15min,AgWx,beryljct,423,05SEP2020:10:30:00,72.3,14.13,70.2,70.3,69.2,70.3,68.2,40,53,34,1.141,43.9,52.1,40.2,2.148,3.3,132,6.2,4.2,0.00411,0.00480,58.7,64.2,18,605,0,107.1,4.31,0.00,0.00
15min,AgWx,beryljct,423,05SEP2020:10:45:00,74.6,14.04,72.8,72.4,71.4,72.4,70.2,39,48,32,0.868,45.2,49.9,40.9,2.674,2.8,133,8.0,4.2,0.00444,0.00511,59.0,64.1,18,647,0,111.0,4.30,0.00,0.00
15min,AgWx,beryljct,423,05SEP2020:11:00:00,76.9,13.99,74.9,74.8,73.7,74.9,72.5,35,46,26,0.999,44.2,51.9,36.0,3.244,2.9,136,5.7,3.8,0.00482,0.00556,59.5,64.1,18,687,0,114.5,4.30,0.00,0.00
15min,AgWx,beryljct,423,05SEP2020:11:15:00,79.1,13.91,76.9,77.0,76.0,77.0,74.9,34,41,24,1.247,45.6,50.5,36.9,2.389,2.5,128,15,3.4,0.00513,0.00586,60.0,64.0,19,724,0,117.1,4.30,0.00,0.00
15min,AgWx,beryljct,423,05SEP2020:11:30:00,81.2,13.9,78.0,78.2,77.6,78.2,77.0,34,42,26,1.020,46.7,53.2,40.7,2.499,2.5,91,9.0,3.4,0.00544,0.00620,60.5,63.9,19,759,0,114.6,4.29,0.00,0.00
15min,AgWx,beryljct,423,05SEP2020:11:45:00,83.1,13.47,79.8,80.0,79.1,80.0,78.2,26,40,19,0.846,41.3,52.2,33.3,2.411,2.1,116,8.9,3.3,0.00565,0.00640,61.2,63.9,19,789,0,121.1,4.29,0.00,0.00
15min,AgWx,beryljct,423,05SEP2020:12:00:00,84.8,13.45,81.4,81.8,80.7,81.8,80.0,30,39,23,0.993,45.9,53.5,38.8,2.346,2.5,115,8.7,3.7,0.00597,0.00680,61.9,63.8,18,816,0,121.8,4.28,0.00,0.00
15min,AgWx,beryljct,423,05SEP2020:12:15:00,86.3,13.42,82.2,82.5,82.3,82.7,81.8,30,38,23,1.153,47.9,54.0,40.6,2.674,3.0,118,7.1,4.1,0.00625,0.00718,62.6,63.8,18,838,0,121.1,4.28,0.00,0.00
15min,AgWx,beryljct,423,05SEP2020:12:30:00,87.6,13.43,84.3,84.4,83.6,84.5,82.5,28,39,19,1.017,46.6,56.4,37.1,2.477,2.5,106,13,3.4,0.00639,0.00726,63.4,63.8,19,860,0,121.5,4.28,0.00,0.00
15min,AgWx,beryljct,423,05SEP2020:12:45:00,89.0,13.35,85.7,85.6,85.2,85.9,84.4,27,37,19,1.172,47.4,56.3,38.3,3.31,2.9,92,9.8,4.5,0.00664,0.00762,64.2,63.8,19,877,0,118.9,4.28,0.00,0.00
15min,AgWx,beryljct,423,05SEP2020:13:00:00,90.3,13.33,86.4,86.6,86.2,86.8,85.6,31,40,23,1.193,51.5,58.7,43.5,4.319,3.6,89,7.7,5.3,0.00687,0.00796,65.1,63.8,19,889,0,116.0,4.28,0.00,0.00
15min,AgWx,beryljct,423,05SEP2020:13:15:00,91.2,13.33,87.9,88.4,87.5,88.8,86.6,32,44,20,1.357,54.1,62.3,42.7,3.705,4.0,103,11,5.5,0.00706,0.00821,65.9,63.9,19,899,0,116.3,4.28,0.00,0.00
15min,AgWx,beryljct,423,05SEP2020:13:30:00,92.0,13.31,89.8,90.6,89.6,90.6,88.2,25,37,12,1.132,48.8,58.9,31.4,2.543,3.6,100,8.8,4.7,0.00716,0.00834,66.8,63.9,19,904,0,118.2,4.28,0.00,0.00
15min,AgWx,beryljct,423,05SEP2020:13:45:00,92.9,13.29,92.3,92.3,90.6,92.3,90.0,24,34,9.6,0.499,48.1,57.9,27.0,0.592,3.2,100,14,5.8,0.00718,0.00829,67.6,64.0,19,909,0,118.9,4.28,0.00,0.00
15min,AgWx,beryljct,423,05SEP2020:14:00:00,93.8,13.26,88.6,89.7,90.9,92.4,89.7,24,39,11,1.484,48.3,62.1,29.0,6.094,4.4,96,10,6.8,0.00738,0.00874,68.5,64.1,19,907,0,116.6,4.28,0.00,0.00
15min,AgWx,beryljct,423,05SEP2020:14:15:00,94.3,13.27,90.3,90.3,90.1,91.4,89.1,24,33,13,1.131,48.0,56.7,33.7,5.152,6.3,109,10,8.9,0.00752,0.00921,69.3,64.2,19,889,0,110.0,4.28,0.00,0.00
15min,AgWx,beryljct,423,05SEP2020:14:30:00,94.7,13.22,91.3,91.2,90.8,91.5,90.0,24,33,16,0.987,48.3,58.0,38.5,4.757,5.3,113,19,7.8,0.00731,0.00883,70.1,64.4,19,878,0,111.8,4.28,0.00,0.00
15min,AgWx,beryljct,423,05SEP2020:14:45:00,95.1,13.21,91.4,91.3,90.3,91.8,89.3,24,33,12,0.985,48.3,56.4,31.6,4.867,6.1,118,11,8.2,0.00732,0.00898,70.8,64.5,19,865,0,108.4,4.29,0.01,0.00
15min,AgWx,beryljct,423,05SEP2020:15:00:00,95.3,13.21,92.0,91.8,90.8,92.2,89.6,20,30,12,0.821,43.7,54.7,32.1,5.327,7.4,145,15,15.7,0.00746,0.00942,71.4,64.6,19,846,0,107.0,4.28,0.00,0.00
15min,AgWx,beryljct,423,05SEP2020:15:15:00,95.7,13.21,90.9,92.2,91.5,93.2,89.7,22,30,9.4,1.323,46.4,56.3,26.3,2.148,4.8,130,22,8.9,0.00684,0.00829,72.0,64.8,19,821,0,108.1,4.28,0.00,0.00
15min,AgWx,beryljct,423,05SEP2020:15:30:00,96.5,13.25,92.4,92.7,91.9,94.5,89.6,22,34,8.5,0.920,46.0,58.8,24.8,6.84,4.4,124,22,9.2,0.00652,0.00784,72.5,.,.,792,0,108.5,4.28,0.00,0.00
15min,AgWx,beryljct,423,05SEP2020:15:45:00,97.1,13.15,89.4,90.1,90.9,92.7,89.7,27,36,16,1.247,51.9,59.7,40.3,6.883,5.4,117,23,8.4,0.00644,0.00788,73.0,.,.,762,0,105.1,4.29,0.00,0.00
15min,AgWx,beryljct,423,05SEP2020:16:00:00,96.6,13.16,89.8,88.9,89.3,90.9,88.1,27,36,16,1.279,50.9,57.5,37.8,8.11,7.5,138,8.9,11.5,0.00636,0.00811,73.5,.,.,717,0,100.3,4.29,0.00,0.00
15min,AgWx,beryljct,423,05SEP2020:16:15:00,96.0,13.16,89.3,89.9,89.8,90.3,89.0,27,34,20,1.494,50.8,57.7,43.8,5.437,6.5,143,9.0,10.1,0.00588,0.00748,73.9,.,.,669,0,99.8,4.29,0.00,0.00
15min,AgWx,beryljct,423,05SEP2020:16:30:00,95.9,13.16,90.5,88.9,90.4,92.7,88.6,23,33,10,1.200,46.9,56.4,28.7,6.357,7.1,125,14,9.8,0.00593,0.00768,74.3,.,.,653,0,99.6,4.29,0.00,0.00
15min,AgWx,beryljct,423,05SEP2020:16:45:00,95.6,13.19,90.9,89.8,90.1,91.4,89.2,24,34,15,1.635,48.5,58.2,36.2,5.722,6.3,119,15,8.3,0.00537,0.00693,74.5,.,.,601,0,99.0,4.29,0.00,0.00
15min,AgWx,beryljct,423,05SEP2020:17:00:00,95.6,13.16,90.1,90.0,90.4,92.9,89.5,23,33,9.7,1.202,46.9,57.0,27.1,4.801,6.5,131,17,10.1,0.00514,0.00673,74.8,.,.,564,0,99.6,4.29,0.00,0.00
15min,AgWx,beryljct,423,05SEP2020:17:15:00,95.6,13.22,93.1,91.4,90.8,91.9,89.7,22,29,17,0.831,46.4,53.8,39.6,4.428,4.9,160,13,9.9,0.00451,0.00580,74.9,.,.,524,0,100.4,4.29,0.00,0.00
15min,AgWx,beryljct,423,05SEP2020:17:30:00,95.9,13.16,92.9,92.7,92.8,95.0,90.6,14,24,8.0,0.754,36.2,48.8,23.9,7.453,7.1,184,18,12.4,0.00479,0.00667,75.0,.,.,478,0,100.1,4.29,0.00,0.00
15min,AgWx,beryljct,423,05SEP2020:17:45:00,95.8,13.19,89.7,92.6,92.6,94.1,91.1,14,19,8.1,0.835,35.4,44.2,23.8,4.801,7.3,201,20,11.9,0.00449,0.00640,75.1,.,.,430,0,98.9,4.29,0.00,0.00
15min,AgWx,beryljct,423,05SEP2020:18:00:00,95.4,13.19,92.7,93.7,92.3,94.0,89.6,13,22,8.4,0.479,34.0,45.7,24.6,6.292,7.3,186,20,12.0,0.00408,0.00595,75.0,.,.,379,0,98.3,4.29,0.00,0.00
15min,AgWx,beryljct,423,05SEP2020:18:15:00,94.9,13.19,92.6,91.8,92.6,93.6,91.6,11,15,8.9,0.596,31.4,37.2,25.5,12.58,8.7,167,15,15.3,0.00406,0.00624,74.9,.,.,327,0,98.0,4.29,0.00,0.00
15min,AgWx,beryljct,423,05SEP2020:18:30:00,94.2,13.23,91.4,92.1,91.8,93.5,90.3,12,16,8.3,0.516,31.0,37.8,23.9,8.88,9.3,176,13,14.0,0.00384,0.00613,74.7,.,.,276,0,95.6,4.29,0.00,0.00
15min,AgWx,beryljct,423,05SEP2020:18:45:00,93.3,13.28,91.3,91.3,91.1,92.1,90.0,12,14,9.6,0.605,31.6,35.7,26.2,9.97,8.7,183,12,12.9,0.00327,0.00538,74.4,67.6,19,223,0,93.3,4.29,0.00,0.00
15min,AgWx,beryljct,423,05SEP2020:19:00:00,92.4,13.19,90.8,90.5,90.8,91.8,89.6,12,14,9.7,0.539,30.1,33.8,26.6,9.95,9.1,185,9.5,13.2,0.00212,0.00291,74.1,.,.,178,0,91.5,4.29,0.00,0.00
15min,AgWx,beryljct,423,05SEP2020:19:15:00,91.3,13.09,87.5,89.0,90.0,91.6,88.4,11,14,9.4,0.554,29.1,32.8,25.6,8.99,9.6,189,11,13.5,0.00203,0.00277,73.7,67.8,19,132,0,90.3,4.29,0.00,0.00
15min,AgWx,beryljct,423,05SEP2020:19:30:00,89.9,13.06,87.3,88.2,88.5,89.6,87.4,12,15,10,0.544,29.2,33.8,25.9,8.35,8.8,204,8.7,13.2,0.00175,0.00242,73.3,67.8,19,88,0,88.1,4.29,0.00,0.00
15min,AgWx,beryljct,423,05SEP2020:19:45:00,88.2,13.04,86.1,86.5,86.8,88.1,85.6,13,14,11,0.502,29.1,31.9,26.2,7.212,8.2,212,7.1,12.7,0.00144,0.00203,72.9,67.8,19,32,0,85.8,4.29,0.00,0.00
15min,AgWx,beryljct,423,05SEP2020:20:00:00,86.3,13,83.6,84.4,84.9,86.5,84.1,13,14,12,0.531,28.9,30.8,26.5,5.7,6.7,205,5.1,8.4,0.00108,0.00158,72.5,67.9,19,8,0,82.7,4.30,0.01,0.00
15min,AgWx,beryljct,423,05SEP2020:20:15:00,84.2,13.01,83.3,82.6,83.2,84.9,82.2,14,15,10,0.471,28.4,31.0,23.1,6.511,5.3,205,4.1,6.8,0.00079,0.00120,72.1,68.0,19,1,0,80.2,4.29,0.00,0.00
15min,AgWx,beryljct,423,05SEP2020:20:30:00,82.0,13,78.4,80.1,80.4,83.3,77.3,15,21,11,0.535,28.5,34.4,24.2,3.968,4.8,190,13,6.7,0.00066,0.00102,71.7,68.1,19,0,0,77.2,4.30,0.00,0.00
15min,AgWx,beryljct,423,05SEP2020:20:45:00,79.6,12.98,78.7,78.3,78.6,79.8,77.0,15,19,14,0.463,27.5,32.4,25.2,5.678,5.1,174,8.3,6.2,0.00067,0.00102,71.3,68.1,19,0,0,74.5,4.30,0.00,0.00
15min,AgWx,beryljct,423,05SEP2020:21:00:00,77.7,12.97,76.9,76.2,77.5,79.1,76.1,15,18,13,0.488,26.2,30.6,23.6,6.489,6.0,167,5.6,6.8,0.00082,0.00120,70.9,68.2,19,0,0,73.8,4.30,0.00,0.00
15min,AgWx,beryljct,423,05SEP2020:21:15:00,75.9,12.97,77.2,78.1,76.4,78.3,74.3,15,19,12,0.429,25.0,30.1,21.7,5.634,5.6,174,4.7,6.9,0.00075,0.00110,70.5,68.3,19,0,0,72.3,4.30,0.00,0.00
15min,AgWx,beryljct,423,05SEP2020:21:30:00,74.9,12.95,77.4,76.4,77.0,78.0,75.7,14,15,13,0.419,23.5,25.3,22.3,5.875,5.3,178,3.9,5.9,0.00071,0.00106,70.2,68.3,19,0,0,72.8,4.30,0.00,0.00
15min,AgWx,beryljct,423,05SEP2020:21:45:00,74.3,12.96,73.7,75.0,76.5,77.1,75.0,14,17,13,0.471,24.3,26.8,21.8,5.502,5.5,178,5.2,6.2,0.00072,0.00108,69.8,68.3,19,0,0,72.2,4.30,0.00,0.00
15min,AgWx,beryljct,423,05SEP2020:22:00:00,73.8,12.95,75.7,75.3,75.3,75.9,74.6,15,17,14,0.445,24.9,26.8,23.2,6.379,6.3,175,5.4,7.2,0.00083,0.00119,69.5,68.4,19,0,0,71.5,4.30,0.00,0.00
15min,AgWx,beryljct,423,05SEP2020:22:15:00,73.4,12.94,70.2,70.7,74.0,75.7,70.7,16,21,14,0.518,25.5,28.9,22.9,5.678,6.4,181,4.7,7.7,0.00081,0.00116,69.1,68.4,19,0,0,70.5,4.30,0.00,0.00
15min,AgWx,beryljct,423,05SEP2020:22:30:00,72.3,12.93,70.9,69.1,70.6,72.0,68.4,21,24,18,0.493,28.7,31.8,26.0,6.533,5.7,177,9.5,6.9,0.00062,0.00091,68.8,68.4,19,0,0,66.6,4.30,0.00,0.00
15min,AgWx,beryljct,423,05SEP2020:22:45:00,70.9,12.92,61.6,63.6,68.0,70.2,63.6,19,31,16,0.631,23.4,32.8,20.7,2.017,5.2,169,25,6.8,0.00056,0.00082,68.5,68.4,19,0,0,64.1,4.30,0.00,0.00
15min,AgWx,beryljct,423,05SEP2020:23:00:00,69.1,12.92,67.4,68.4,65.7,68.5,62.9,24,33,18,0.450,27.5,33.2,23.2,3.113,2.3,53,29,3.5,0.00004,0.00012,68.1,68.4,19,0,0,60.8,4.30,0.00,0.00
15min,AgWx,beryljct,423,05SEP2020:23:15:00,67.6,12.92,57.1,60.3,63.6,68.3,58.7,32,50,18,0.697,31.8,40.3,23.4,1.82,2.7,127,30,3.9,0.00010,0.00019,67.9,68.4,19,0,0,59.0,4.30,0.00,0.00
15min,AgWx,beryljct,423,05SEP2020:23:30:00,66.0,12.9,58.0,59.6,62.3,65.6,59.6,30,41,18,0.694,29.6,36.4,20.6,0,1.8,160,25,3.9,-0.00006,-0.00003,67.6,68.4,19,0,0,55.8,4.31,0.01,0.00
15min,AgWx,beryljct,423,05SEP2020:23:45:00,64.7,12.9,63.4,61.0,61.0,63.8,59.1,32,40,24,0.589,30.6,35.2,25.1,0.965,1.4,300,32,3.2,-0.00014,-0.00016,67.2,68.3,19,0,0,54.9,4.31,0.00,0.00
15min,AgWx,beryljct,423,06SEP2020:00:00:00,63.9,12.88,60.8,64.6,65.4,71.6,61.2,25,36,14,0.655,28.1,37.1,20.0,2.28,2.9,264,57,4.4,0.00016,0.00029,67.0,68.3,18,0,0,58.5,4.31,0.00,0.00
15min,AgWx,beryljct,423,06SEP2020:00:15:00,63.6,12.88,60.9,59.5,61.7,64.3,58.8,34,47,24,0.639,33.1,38.7,26.0,0,1.3,121,21,3.0,-0.00015,-0.00019,66.7,68.3,19,0,0,56.3,4.31,0.00,0.00
15min,AgWx,beryljct,423,06SEP2020:00:30:00,62.8,12.87,63.6,63.5,62.4,64.9,59.6,30,36,22,0.596,30.1,35.0,24.6,0.132,0.8,210,14,2.3,-0.00026,-0.00036,66.4,68.3,18,0,0,55.4,4.31,0.00,0.00
15min,AgWx,bigpiney,439,05SEP2020:00:00:00,54.1,12.69,54.5,55.5,55.2,56.3,53.8,40,44,38,0.584,31.5,32.5,30.8,2.543,2.6,271,29,5.7,0.00001,0.00006,53.6,51.5,45,0,0,0.0,8.21,0.00,0.00
15min,AgWx,bigpiney,439,05SEP2020:00:15:00,54.0,12.68,54.3,53.8,52.1,55.4,48.1,45,54,39,0.584,31.4,32.7,30.7,3.508,3.4,265,46,5.8,0.00007,0.00014,53.6,51.5,45,0,0,0.0,8.21,0.00,0.00
15min,AgWx,bigpiney,439,05SEP2020:00:30:00,53.5,12.68,43.1,47.9,52.8,54.4,47.9,43,54,41,0.608,31.1,32.0,30.6,5.371,2.8,266,41,5.4,0.00002,0.00007,53.5,51.6,46,0,0,0.0,8.21,0.00,0.00
15min,AgWx,bigpiney,439,05SEP2020:00:45:00,52.6,12.67,45.6,45.7,45.6,49.2,43.1,60,67,53,0.605,32.3,33.4,31.6,3.069,4.9,227,7.9,5.7,0.00008,0.00013,53.5,51.6,46,0,0,0.0,8.21,0.00,0.00
15min,AgWx,bigpiney,439,05SEP2020:01:00:00,51.4,12.66,55.4,54.1,49.3,54.1,45.1,51,59,42,0.604,31.8,32.3,31.0,3.288,4.6,227,9.0,6.8,0.00012,0.00019,53.4,51.6,46,0,0,0.0,8.21,0.00,0.00
15min,AgWx,bigpiney,439,05SEP2020:01:15:00,50.7,12.66,48.0,47.7,48.9,55.2,46.9,52,56,40,0.599,31.9,32.6,31.2,3.705,2.9,268,31,5.7,-0.00001,0.00003,53.4,51.6,46,0,0,0.0,8.21,0.00,0.00
15min,AgWx,bigpiney,439,05SEP2020:01:30:00,50.2,12.64,51.5,50.9,48.9,51.4,46.7,51,56,45,0.589,31.6,32.0,30.9,3.486,4.6,256,9.8,6.0,0.00012,0.00019,53.4,51.6,46,0,0,0.0,8.21,0.00,0.00
15min,AgWx,bigpiney,439,05SEP2020:01:45:00,49.8,12.63,51.9,49.0,47.1,51.0,44.3,54,60,46,0.575,31.1,31.6,30.5,1.929,1.6,249,55,3.4,-0.00012,-0.00015,53.3,51.6,46,0,0,0.0,8.21,0.00,0.00
15min,AgWx,bigpiney,439,05SEP2020:02:00:00,49.4,12.62,44.3,44.2,47.0,51.6,43.6,53,61,43,0.571,30.5,31.0,29.6,4.362,4.3,225,11,5.7,0.00009,0.00015,53.2,51.7,46,0,0,0.0,8.21,0.00,0.00
15min,AgWx,bigpiney,439,05SEP2020:02:15:00,48.7,12.62,42.7,42.3,41.2,44.2,39.5,67,73,58,0.603,31.2,32.0,30.1,3.464,3.6,215,4.2,4.5,-0.00002,-0.00001,53.1,51.7,46,0,0,0.0,8.21,0.00,0.00
15min,AgWx,bigpiney,439,05SEP2020:02:30:00,47.5,12.61,42.4,45.2,40.9,45.6,38.3,68,73,55,0.569,31.0,31.7,30.3,1.666,3.3,220,15,4.3,-0.00004,-0.00003,53.1,51.7,46,0,0,0.0,8.21,0.00,0.00
15min,AgWx,bigpiney,439,05SEP2020:02:45:00,46.5,12.61,47.5,46.5,45.8,47.5,44.4,54,57,51,0.577,30.2,30.7,29.6,3.42,1.0,246,28,3.9,-0.00020,-0.00027,53.0,51.7,46,0,0,0.0,8.21,0.00,0.00
15min,AgWx,bigpiney,439,05SEP2020:03:00:00,45.8,12.58,48.5,48.7,48.1,49.0,46.6,50,54,49,0.575,30.5,30.7,30.1,2.368,2.4,265,34,3.4,-0.00004,-0.00003,53.0,51.6,46,0,0,0.0,8.21,0.00,0.00
15min,AgWx,bigpiney,439,05SEP2020:03:15:00,45.4,12.6,45.7,47.2,47.7,49.1,45.9,51,54,49,0.569,30.4,30.8,29.6,3.88,3.4,284,11,3.9,0.00004,0.00008,52.9,51.6,46,0,0,0.0,8.21,0.00,0.00
15min,AgWx,bigpiney,439,05SEP2020:03:30:00,45.2,12.58,48.9,47.9,47.2,48.0,45.2,51,55,49,0.559,30.0,30.5,29.5,0.636,2.8,274,18,4.0,-0.00001,0.00002,52.8,51.7,46,0,0,0.0,8.21,0.00,0.00
15min,AgWx,bigpiney,439,05SEP2020:03:45:00,45.0,12.57,37.4,36.2,42.6,49.4,35.7,60,76,47,0.550,29.2,30.1,27.5,5.59,3.7,191,13,5.6,0.00002,0.00006,52.8,51.6,46,0,0,0.0,8.21,0.00,0.00
15min,AgWx,bigpiney,439,05SEP2020:04:00:00,44.3,12.56,38.5,37.9,36.9,37.9,35.6,77,79,73,0.592,30.2,31.4,29.0,5.48,5.3,204,4.3,6.3,-0.00001,0.00000,52.7,51.6,46,0,0,0.0,8.21,0.00,0.00
15min,AgWx,bigpiney,439,05SEP2020:04:15:00,43.4,12.54,38.8,38.4,38.4,38.9,37.9,76,77,75,0.602,31.5,31.8,31.1,4.077,5.1,214,7.7,6.0,-0.00001,0.00000,52.6,51.6,46,0,0,0.0,8.21,0.00,0.00
15min,AgWx,bigpiney,439,05SEP2020:04:30:00,42.8,12.54,40.2,39.2,39.4,40.5,38.4,72,76,68,0.598,31.2,32.0,30.5,5.502,4.2,215,8.3,5.5,-0.00002,-0.00001,52.5,51.6,46,0,0,0.0,8.21,0.00,0.00
15min,AgWx,bigpiney,439,05SEP2020:04:45:00,42.3,12.53,36.6,35.9,37.1,40.0,35.6,77,81,71,0.576,30.6,31.9,30.0,5.437,5.7,203,2.8,6.9,-0.00000,0.00001,52.5,51.6,46,0,0,0.0,8.21,0.00,0.00
15min,AgWx,bigpiney,439,05SEP2020:05:00:00,41.8,12.51,36.7,35.6,36.5,37.5,35.5,78,81,75,0.560,30.3,31.3,28.7,3.266,4.6,224,15,6.1,-0.00003,-0.00003,52.4,51.6,46,0,0,0.0,8.21,0.00,0.00
15min,AgWx,bigpiney,439,05SEP2020:05:15:00,41.2,12.52,39.7,39.7,38.4,40.1,35.7,68,80,62,0.517,28.9,30.6,27.7,3.398,3.9,309,31,4.7,-0.00002,-0.00000,52.3,51.6,46,0,0,0.0,8.21,0.00,0.00
15min,AgWx,bigpiney,439,05SEP2020:05:30:00,40.9,12.51,41.3,41.0,40.6,41.1,39.5,61,63,60,0.523,28.2,28.7,27.7,3.749,4.1,332,8.8,4.8,0.00002,0.00005,52.3,51.5,46,0,0,0.0,8.21,0.00,0.00
15min,AgWx,bigpiney,439,05SEP2020:05:45:00,41.0,12.49,41.3,40.6,41.7,42.5,40.5,57,60,56,0.515,27.7,28.1,27.3,3.288,2.9,287,25,4.1,-0.00003,-0.00001,52.2,51.5,46,0,0,0.0,8.21,0.00,0.00
15min,AgWx,bigpiney,439,05SEP2020:06:00:00,40.9,12.48,42.5,40.8,38.8,42.0,36.0,64,71,57,0.524,27.6,28.9,26.0,3.99,4.5,237,9.0,6.1,0.00003,0.00005,52.1,51.6,46,0,0,0.0,8.21,0.00,0.00
15min,AgWx,bigpiney,439,05SEP2020:06:15:00,40.4,12.47,46.6,43.9,38.8,43.9,36.5,64,69,55,0.539,27.7,29.3,26.8,3.617,4.1,226,16,5.1,0.00001,0.00003,52.0,51.5,46,0,0,0.0,8.21,0.00,0.00
15min,AgWx,bigpiney,439,05SEP2020:06:30:00,39.7,12.46,37.3,35.7,37.6,45.4,33.8,67,77,51,0.545,27.3,29.3,25.9,6.379,5.6,200,4.5,6.9,0.00005,0.00009,52.0,51.5,46,0,0,0.0,8.21,0.00,0.00
15min,AgWx,bigpiney,439,05SEP2020:06:45:00,39.1,12.45,35.5,35.4,37.2,40.3,35.2,75,80,68,0.558,30.0,31.3,29.3,5.919,5.7,202,2.3,6.7,0.00001,0.00003,51.9,51.6,45,1,0,0.0,8.21,0.00,0.00
15min,AgWx,bigpiney,439,05SEP2020:07:00:00,38.7,12.45,35.4,35.2,35.1,36.4,33.9,80,82,76,0.533,29.4,30.7,28.1,3.464,4.0,250,35,6.1,-0.00004,-0.00004,51.8,51.5,45,8,0,0.0,8.21,0.00,0.00